Regional Weather Roundup
Issued by NWS Mt. Holly, NJ

Home | Current Version | Previous Version | Text Only | Print | Product List | Glossary On
Versions: 1 2 3 4 5 6 7 8 9 10 11 12 13 14 15 16 17 18 19 20 21 22 23 24 25 26 27 28 29 30 31 32 33 34 35 36 37 38 39 40 41 42 43 44 45 46 47 48 49 50
000
ASUS41 KPHI 250612
RWRPHI

REGIONAL WEATHER ROUNDUP
NATIONAL WEATHER SERVICE MOUNT HOLLY NJ
200 AM EDT SUN SEP 25 2016

NOTE:  "FAIR" INDICATES FEW OR NO CLOUDS BELOW 12,000 FEET WITH NO
SIGNIFICANT WEATHER AND/OR OBSTRUCTIONS TO VISIBILITY.

 * = STATION DOES NOT REPORT PRECIPITATION (E.G. RAIN, SNOW, ETC.)
        OR FOG.

NJZ015>026-250700-
SOUTHERN NEW JERSEY

CITY           SKY/WX    TMP DP  RH WIND       PRES   REMARKS
POMONA         CLEAR     53  50  89 CALM      30.14S
6HR MIN TEMP:  50; 6HR MAX TEMP:  60;

WILDWOOD*        N/A     54  53  97 CALM      30.14S
MILLVILLE      CLEAR     51  51 100 CALM      30.15R
WRIGHTSTOWN    CLEAR     51  46  82 N7        30.13R
MOUNT HOLLY    CLEAR     49  48  97 CALM      30.16R
TRENTON        CLEAR     54  42  64 N8        30.16R
6HR MIN TEMP:  54; 6HR MAX TEMP:  62;


$$
NJZ001>014-250700-
NORTHERN NEW JERSEY

CITY           SKY/WX    TMP DP  RH WIND       PRES   REMARKS
SUSSEX         CLEAR     43  42  97 CALM      30.18S
ANDOVER*         N/A     45  43  93 CALM      30.19R
MORRISTOWN     FLURRIES  43  43 100 CALM      30.17R
NEWARK         CLEAR     56  43  61 N8        30.16R
TETERBORO      CLEAR     55  42  61 NW3       30.16R
CALDWELL       CLEAR     51  47  86 CALM      30.18R
SOMERVILLE     CLEAR     47  44  90 NW5       30.16R
ALLAIRE*       CLEAR     55  48  77 N8        30.16R
TOMS RIVER*    CLEAR     48  46  93 CALM      30.15R

$$
PAZ043-044-047-054-055-060>062-066>071-250700-
EASTERN PENNSYLVANIA

CITY           SKY/WX    TMP DP  RH WIND       PRES   REMARKS
PHILADELPHIA   CLEAR     60  44  55 N12       30.17R
6HR MIN TEMP:  59; 6HR MAX TEMP:  67;

NORTH PHILA    CLEAR     56  44  64 N8        30.18R
BLUE BELL*     CLEAR     50  45  81 CALM      30.17R
DOYLESTOWN     CLEAR     51  46  83 CALM      30.17R
QUAKERTOWN*    CLEAR     46  45  93 CALM      30.19R
PERKASIE*      FAIR      50  43  76 N3        30.19R
POTTSTOWN      CLEAR     54  43  66 N7        30.19R
LANCASTER      CLEAR     54  46  74 CALM      30.18S
COATESVILLE    CLEAR     55  43  62 N7        30.19R
READING        CLEAR     52  43  71 NW3       30.18R
6HR MIN TEMP:  52; 6HR MAX TEMP:  64;

ALLENTOWN      CLEAR     52  40  63 N7        30.19R
6HR MIN TEMP:  50; 6HR MAX TEMP:  62;

MOUNT POCONO   CLEAR     42  37  82 N5        30.19S
6HR MIN TEMP:  42; 6HR MAX TEMP:  52;

HAZLETON       CLEAR     50  39  66 N3        30.23R
LEHIGHTON      FAIR      41  41 100 CALM      30.21R
WILKES BARRE   CLEAR     46  43  89 E5        30.20S

$$
DEZALL-MDZ008-012-015-019-020-250700-
DELAWARE AND EASTERN MARYLAND

CITY           SKY/WX    TMP DP  RH WIND       PRES   REMARKS
WILMINGTON     CLEAR     55  46  71 N6        30.17R
6HR MIN TEMP:  53; 6HR MAX TEMP:  64;

DOVER          CLEAR     58  58 100 W3        30.14R
GEORGETOWN     CLEAR     56  55  97 CALM      30.14S
6HR MIN TEMP:  56; 6HR MAX TEMP:  64;

PATUXENT       CLEAR     62  57  83 NE5       30.14S
OCEAN CITY     PTCLDY    59  57  93 NW3       30.13S
WALLOPS ISLAND CLEAR     62  61  96 N5        30.13S
CAMBRIDGE      PTCLDY    54  54 100 CALM      30.14S
SALISBURY      CLOUDY    56  56 100 CALM      30.14R FOG

$$
PAZ001-021-NYZ056-072-MDZ011-DCZ001-250700-
OTHER NEARBY LOCATIONS

CITY           SKY/WX    TMP DP  RH WIND       PRES   REMARKS
HARRISBURG     CLEAR     55  47  74 N5        30.19R
STATE COLLEGE  CLEAR     49  45  85 NE5       30.23R
WILLIAMSPORT   CLEAR     49  45  86 NW3       30.21R
BINGHAMTON     CLEAR     46  38  73 NW6       30.20S
NEW YORK CITY  CLEAR     58  43  57 VRB5      30.19R
BALTIMORE      PTCLDY    54  53  97 NW3       30.16R
WASHINGTON DC  PTCLDY    64  62  93 CALM      30.16S

$$



USA.gov is the U.S. government's official web portal to all federal, state and local government web resources and services.